Volver al catálogo

SCOUT G-1 DEB

ActivoPO
NORAD 19516·DEBRIS·🇺🇸 United States

Lanzado Aug 25, 1988 desde Vandenberg Space Force Base

Loading…

Próximos Pases (próximas 24 horas)

TLE

ActualizadoSource: Space-Track

Época: Sep 13, 2026, 03:08 UTC

1 19516U 88074E   26256.13067337  .00000300  00000-0  43662-3 0  9997
2 19516  90.0474  24.3939 0087300 183.7114 301.9004 13.51337034870485

Sigue SCOUT G-1 DEB en tiempo real con AllMySat

Download on the App Store